Powrót do katalogu

FENGYUN 1C DEB

AktywnySSO
NORAD 30949·DEBRIS·🇨🇳 China

Wystrzelony May 10, 1999 z Taiyuan Satellite Launch Center

Loading…

Następne Przeloty (najbliższe 24 godziny)

TLE

ŚwieżeSource: Space-Track

Epoka: Sep 14, 2026, 11:15 UTC

1 30949U 99025BAP 26257.46920310  .00000196  00000-0  11769-3 0  9990
2 30949  98.7151 249.8692 0115559 242.2250 270.8427 14.14268576  4111

Śledź FENGYUN 1C DEB w czasie rzeczywistym z AllMySat

Download on the App Store